Logan, UT

10:30 PM MDT on March 24, 2017 (GMT -0600)
Logan-Cache

Weather History for KLGU - March, 2014

Change the Weather History Date:

Monday, March 24, 2014

  Actual Average Record
Temperature  
Mean Temperature 42 °F -  
Max Temperature 57 °F 53 °F 69 °F (1993)
Min Temperature 27 °F 29 °F 12 °F (1964)
Degree Days  
Heating Degree Days 23    
Moisture  
Dew Point 18 °F    
Average Humidity 41    
Maximum Humidity 66    
Minimum Humidity 22    
Precipitation  
Precipitation 0.00 in - - ()
Sea Level Pressure  
Sea Level Pressure 30.20 in    
Wind  
Wind Speed 5 mph (SSE)    
Max Wind Speed 13 mph    
Max Gust Speed -    
Visibility 10 miles    
Events      
Averages and records for this station are not official NWS values.
T = Trace of Precipitation, MM = Missing Value Source: NWS Daily Summary

Daily Weather History Graph

Daily Weather History Graph

Search for Another Location

Airport or City:

Trip Planner

Search our weather history database for the weather conditions in past years. The results will help you decide how hot, cold, wet, or windy it might be!

Date:

Astronomy

Mar. 24, 2014 Rise Set
Actual Time 7:23 AM MDT 7:44 PM MDT
Civil Twilight 6:55 AM MDT 8:12 PM MDT
Nautical Twilight 6:23 AM MDT 8:44 PM MDT
Astronomical Twilight 5:49 AM MDT 9:18 PM MDT
Moon 3:01 AM MDT (3/24) 1:08 PM MDT (3/24)
Length of Visible Light 13h 16m
Length of Day
12h 20m
Last Quarter, 42% of the Moon is Illuminated
Mar 24
Last Quarter
Mar 30
New
Apr 7
First Quarter
Apr 15
Full
Apr 22
Last Quarter

Hourly Weather History & Observations

Time (MDT) Temp. Windchill Dew Point Humidity Pressure Visibility Wind Dir Wind Speed Gust Speed Precip Events Conditions
12:51 AM 36.0 °F 31.1 °F 16.0 °F 44% 30.15 in 10.0 mi SE 5.8 mph - N/A   Clear
1:51 AM 32.0 °F - 19.0 °F 59% 30.16 in 10.0 mi North - - N/A   Clear
2:51 AM 37.0 °F 33.3 °F 15.1 °F 41% 30.17 in 10.0 mi North 4.6 mph - N/A   Clear
3:51 AM 30.9 °F 25.2 °F 17.1 °F 57% 30.17 in 10.0 mi SE 5.8 mph - N/A   Clear
4:51 AM 30.9 °F - 16.0 °F 54% 30.19 in 10.0 mi Calm Calm - N/A   Clear
5:51 AM 30.0 °F 25.2 °F 16.0 °F 56% 30.21 in 10.0 mi Variable 4.6 mph - N/A   Clear
6:51 AM 27.0 °F 18.0 °F 16.0 °F 63% 30.24 in 10.0 mi NNW 9.2 mph - N/A   Clear
7:51 AM 27.0 °F 19.5 °F 17.1 °F 66% 30.28 in 10.0 mi SSW 6.9 mph - N/A   Clear
8:51 AM 34.0 °F 31.0 °F 18.0 °F 52% 30.27 in 10.0 mi South 3.5 mph - N/A   Clear
9:51 AM 39.9 °F 37.8 °F 19.0 °F 43% 30.28 in 10.0 mi Variable 3.5 mph - N/A   Clear
10:51 AM 44.1 °F - 19.0 °F 37% 30.27 in 10.0 mi Calm Calm - N/A   Clear
11:51 AM 50.0 °F - 17.1 °F 27% 30.27 in 10.0 mi Calm Calm - N/A   Clear
12:51 PM 51.1 °F - 17.1 °F 26% 30.25 in 10.0 mi Variable 3.5 mph - N/A   Clear
2:51 PM 55.9 °F - 18.0 °F 23% 30.19 in 10.0 mi Variable 4.6 mph - N/A   Clear
3:51 PM 57.9 °F - 19.9 °F 23% 30.19 in 10.0 mi Variable 3.5 mph - N/A   Clear
4:51 PM 57.0 °F - 19.9 °F 24% 30.19 in 10.0 mi Variable 4.6 mph - N/A   Clear
5:51 PM 57.0 °F - 18.0 °F 22% 30.18 in 10.0 mi SSW 6.9 mph - N/A   Clear
6:51 PM 55.9 °F - 17.1 °F 22% 30.17 in 10.0 mi South 12.7 mph - N/A   Clear
7:51 PM 51.1 °F - 17.1 °F 26% 30.18 in 10.0 mi South 6.9 mph - N/A   Clear
8:51 PM 46.0 °F 43.1 °F 17.1 °F 31% 30.18 in 10.0 mi East 5.8 mph - N/A   Clear
9:51 PM 41.0 °F 37.1 °F 19.0 °F 41% 30.18 in 10.0 mi East 5.8 mph - N/A   Clear
10:51 PM 37.0 °F 32.4 °F 21.9 °F 54% 30.17 in 10.0 mi WSW 5.8 mph - N/A   Clear
11:51 PM 34.0 °F 31.0 °F 21.9 °F 61% 30.17 in 10.0 mi ENE 3.5 mph - N/A   Clear